Meteo orario Abay (Aralskiy rayon)

Oggi, 28 Febbraio, Domenica

Tempo Temperatura Precipitazioni Vento Pressione Umidità
00:00 -5°C° 0.3 mm 9 m/s 754 mm Hg 94%
01:00 -4°C° 0.3 mm 10 m/s 754 mm Hg 94%
02:00 -4°C° 0.1 mm 9 m/s 753 mm Hg 94%
03:00 -3°C° 0.1 mm 9 m/s 753 mm Hg 93%
04:00 -3°C° 0 mm 9 m/s 752 mm Hg 91%
05:00 -1°C° 0.2 mm 9 m/s 752 mm Hg 93%
06:00 -1°C° 0.2 mm 9 m/s 752 mm Hg 95%
07:00 -1°C° 0.2 mm 9 m/s 752 mm Hg 97%
08:00 0°C° 0.1 mm 9 m/s 752 mm Hg 97%
09:00 0°C° 0.1 mm 9 m/s 752 mm Hg 98%
10:00 0°C° 0 mm 9 m/s 752 mm Hg 99%
11:00 0°C° 0 mm 9 m/s 752 mm Hg 96%
12:00 +1°C° 0 mm 9 m/s 752 mm Hg 94%
13:00 +1°C° 0 mm 9 m/s 752 mm Hg 91%
14:00 +1°C° 0.2 mm 9 m/s 752 mm Hg 90%
15:00 +1°C° 0.2 mm 9 m/s 752 mm Hg 90%
16:00 0°C° 0.2 mm 8 m/s 752 mm Hg 89%
17:00 0°C° 0.2 mm 8 m/s 752 mm Hg 90%
18:00 0°C° 0.2 mm 7 m/s 753 mm Hg 91%
19:00 0°C° 0.2 mm 7 m/s 753 mm Hg 92%
20:00 -1°C° 0.2 mm 7 m/s 753 mm Hg 93%
21:00 -1°C° 0.2 mm 7 m/s 753 mm Hg 93%
22:00 -1°C° 0.2 mm 7 m/s 753 mm Hg 93%
23:00 -1°C° 0.4 mm 6 m/s 753 mm Hg 93%

Domani, 1 Marzo, Lunedi

Tempo Temperatura Precipitazioni Vento Pressione Umidità
00:00 -1°C° 0.4 mm 6 m/s 753 mm Hg 93%
01:00 0°C° 0.4 mm 5 m/s 753 mm Hg 93%
02:00 -1°C° 0.3 mm 5 m/s 753 mm Hg 94%
03:00 -1°C° 0.3 mm 4 m/s 754 mm Hg 95%
04:00 -2°C° 0.3 mm 4 m/s 754 mm Hg 96%
05:00 -3°C° 0 mm 4 m/s 754 mm Hg 93%
06:00 -4°C° 0 mm 4 m/s 755 mm Hg 91%
07:00 -5°C° 0 mm 4 m/s 755 mm Hg 89%
08:00 -7°C° 0 mm 4 m/s 755 mm Hg 83%
09:00 -7°C° 0 mm 4 m/s 756 mm Hg 77%
10:00 -6°C° 0 mm 3 m/s 756 mm Hg 71%
11:00 -6°C° 0 mm 3 m/s 757 mm Hg 68%
12:00 -5°C° 0 mm 3 m/s 757 mm Hg 66%
13:00 -5°C° 0 mm 4 m/s 757 mm Hg 63%
14:00 -5°C° 0 mm 4 m/s 757 mm Hg 64%
15:00 -7°C° 0 mm 4 m/s 757 mm Hg 66%
16:00 -7°C° 0 mm 4 m/s 758 mm Hg 67%
17:00 -6°C° 0 mm 3 m/s 758 mm Hg 70%
18:00 -7°C° 0 mm 3 m/s 758 mm Hg 73%
19:00 -8°C° 0 mm 3 m/s 759 mm Hg 76%
20:00 -8°C° 0 mm 3 m/s 759 mm Hg 77%
21:00 -9°C° 0 mm 3 m/s 759 mm Hg 78%
22:00 -9°C° 0 mm 3 m/s 760 mm Hg 78%
23:00 -10°C° 0 mm 3 m/s 760 mm Hg 79%

Dopodomani, 2 Marzo, Martedi

Tempo Temperatura Precipitazioni Vento Pressione Umidità
00:00 -10°C° 0 mm 3 m/s 760 mm Hg 79%
01:00 -10°C° 0 mm 3 m/s 760 mm Hg 80%
02:00 -12°C° 0 mm 4 m/s 760 mm Hg 80%
03:00 -12°C° 0 mm 4 m/s 760 mm Hg 80%
04:00 -14°C° 0 mm 4 m/s 760 mm Hg 80%
05:00 -14°C° 0 mm 4 m/s 760 mm Hg 80%
06:00 -14°C° 0 mm 4 m/s 760 mm Hg 79%
07:00 -15°C° 0 mm 4 m/s 760 mm Hg 79%
08:00 -14°C° 0 mm 4 m/s 761 mm Hg 78%
09:00 -14°C° 0 mm 5 m/s 761 mm Hg 76%
10:00 -14°C° 0 mm 5 m/s 761 mm Hg 74%
11:00 -13°C° 0 mm 5 m/s 761 mm Hg 73%
12:00 -12°C° 0 mm 5 m/s 761 mm Hg 72%
13:00 -11°C° 0 mm 5 m/s 761 mm Hg 70%
14:00 -11°C° 0 mm 5 m/s 761 mm Hg 70%
15:00 -10°C° 0 mm 5 m/s 761 mm Hg 69%
16:00 -10°C° 0 mm 5 m/s 760 mm Hg 69%
17:00 -11°C° 0 mm 5 m/s 761 mm Hg 71%
18:00 -10°C° 0 mm 4 m/s 761 mm Hg 73%
19:00 -10°C° 0 mm 4 m/s 761 mm Hg 76%
20:00 -11°C° 0 mm 4 m/s 761 mm Hg 77%
21:00 -11°C° 0 mm 4 m/s 761 mm Hg 78%
22:00 -10°C° 0 mm 3 m/s 761 mm Hg 80%
23:00 -11°C° 0 mm 4 m/s 761 mm Hg 82%

3 Marzo, Mercoledi

Tempo Temperatura Precipitazioni Vento Pressione Umidità
00:00 -11°C° 0 mm 4 m/s 760 mm Hg 84%
01:00 -10°C° 0 mm 4 m/s 760 mm Hg 85%
02:00 -10°C° 0 mm 4 m/s 760 mm Hg 87%
03:00 -9°C° 0 mm 4 m/s 759 mm Hg 89%
04:00 -10°C° 0 mm 5 m/s 759 mm Hg 90%
05:00 -8°C° 0 mm 5 m/s 759 mm Hg 92%
06:00 -8°C° 0 mm 5 m/s 758 mm Hg 94%
07:00 -7°C° 0 mm 5 m/s 758 mm Hg 96%
08:00 -6°C° 0 mm 6 m/s 758 mm Hg 94%
09:00 -6°C° 0 mm 7 m/s 758 mm Hg 93%
10:00 -3°C° 0 mm 7 m/s 758 mm Hg 91%
11:00 -3°C° 0.1 mm 7 m/s 758 mm Hg 92%
12:00 -2°C° 0.1 mm 7 m/s 757 mm Hg 93%
13:00 -2°C° 0.1 mm 7 m/s 757 mm Hg 93%
14:00 -2°C° 0 mm 7 m/s 756 mm Hg 89%
15:00 -1°C° 0 mm 6 m/s 756 mm Hg 84%
16:00 -1°C° 0 mm 6 m/s 756 mm Hg 80%
17:00 -1°C° 0 mm 5 m/s 756 mm Hg 81%
18:00 -1°C° 0 mm 5 m/s 755 mm Hg 83%
19:00 -2°C° 0 mm 5 m/s 755 mm Hg 85%
20:00 -2°C° 0 mm 5 m/s 755 mm Hg 86%
21:00 -3°C° 0 mm 6 m/s 755 mm Hg 87%
22:00 -3°C° 0 mm 6 m/s 755 mm Hg 88%
23:00 -3°C° 0 mm 6 m/s 754 mm Hg 87%

4 Marzo, Giovedi

Tempo Temperatura Precipitazioni Vento Pressione Umidità
00:00 -3°C° 0 mm 7 m/s 753 mm Hg 86%
01:00 -3°C° 0 mm 7 m/s 753 mm Hg 85%
02:00 -3°C° 0 mm 6 m/s 752 mm Hg 84%
03:00 -3°C° 0 mm 6 m/s 752 mm Hg 83%
04:00 -3°C° 0 mm 6 m/s 752 mm Hg 83%
05:00 -2°C° 0.3 mm 5 m/s 751 mm Hg 88%
06:00 -2°C° 0.3 mm 4 m/s 751 mm Hg 93%
07:00 -2°C° 0.3 mm 4 m/s 751 mm Hg 98%
08:00 -2°C° 0 mm 4 m/s 750 mm Hg 96%
09:00 -1°C° 0 mm 4 m/s 750 mm Hg 94%
10:00 -1°C° 0 mm 5 m/s 750 mm Hg 92%
11:00 -1°C° 0 mm 6 m/s 750 mm Hg 87%
12:00 -1°C° 0 mm 7 m/s 750 mm Hg 82%
13:00 -1°C° 0 mm 8 m/s 750 mm Hg 76%
14:00 -1°C° 0 mm 8 m/s 751 mm Hg 80%
15:00 -3°C° 0 mm 9 m/s 751 mm Hg 83%
16:00 -3°C° 0 mm 9 m/s 752 mm Hg 86%
17:00 -4°C° 0 mm 9 m/s 753 mm Hg 82%
18:00 -5°C° 0 mm 9 m/s 754 mm Hg 78%
19:00 -8°C° 0 mm 9 m/s 755 mm Hg 75%
20:00 -7°C° 0 mm 8 m/s 756 mm Hg 74%
21:00 -8°C° 0 mm 8 m/s 757 mm Hg 73%
22:00 -9°C° 0 mm 7 m/s 759 mm Hg 72%
23:00 -9°C° 0 mm 6 m/s 759 mm Hg 73%

5 Marzo, Venerdi

Tempo Temperatura Precipitazioni Vento Pressione Umidità
00:00 -9°C° 0 mm 6 m/s 760 mm Hg 75%
01:00 -8°C° 0 mm 5 m/s 761 mm Hg 77%
02:00 -10°C° 0 mm 5 m/s 761 mm Hg 78%
03:00 -9°C° 0 mm 4 m/s 762 mm Hg 79%
04:00 -9°C° 0 mm 4 m/s 762 mm Hg 79%
05:00 -9°C° 0 mm 4 m/s 762 mm Hg 80%
06:00 -10°C° 0 mm 5 m/s 763 mm Hg 81%
07:00 -10°C° 0 mm 5 m/s 763 mm Hg 82%
08:00 -8°C° 0 mm 6 m/s 763 mm Hg 78%
09:00 -6°C° 0 mm 6 m/s 764 mm Hg 74%
10:00 -4°C° 0 mm 7 m/s 764 mm Hg 70%
11:00 -3°C° 0 mm 7 m/s 764 mm Hg 67%
12:00 -2°C° 0 mm 7 m/s 764 mm Hg 64%
13:00 -1°C° 0 mm 8 m/s 764 mm Hg 62%
14:00 -1°C° 0 mm 7 m/s 763 mm Hg 62%
15:00 -1°C° 0 mm 7 m/s 763 mm Hg 63%
16:00 -1°C° 0 mm 7 m/s 763 mm Hg 63%
17:00 -2°C° 0 mm 6 m/s 763 mm Hg 67%
18:00 -2°C° 0 mm 5 m/s 763 mm Hg 71%
19:00 -3°C° 0 mm 4 m/s 763 mm Hg 75%
20:00 -3°C° 0 mm 4 m/s 763 mm Hg 77%
21:00 -3°C° 0 mm 4 m/s 763 mm Hg 79%
22:00 -3°C° 0 mm 4 m/s 763 mm Hg 81%
23:00 -3°C° 0 mm 4 m/s 763 mm Hg 81%
Mostrare altro

Abbiamo bisogno del tuo consenso

Meteoprog e i nostri fornitori di servizi possono memorizzare e accedere a dati personali come cookie, identificatori di dispositivi o altre tecnologie simili sul tuo dispositivo e possono elaborare tali dati per personalizzare i contenuti e gli annunci, nonché fornire funzionalità dei social media e analizzarne il traffico.

  • Archiviare e/o accedere alle informazioni sul tuo dispositivo

    Cookie, identificatori di dispositivi o altre informazioni possono essere memorizzati o resi accessibili sul tuo dispositivo per le finalità sopra indicate.

  • Annunci e contenuti personalizzati, misurazione di annunci e contenuti, approfondimenti sul pubblico e sviluppo di prodotti

    Gli annunci e i contenuti possono essere personalizzati in base a un profilo. È possibile aggiungere più dati per personalizzare meglio annunci e contenuti. È possibile misurare il rendimento degli annunci e dei contenuti. È possibile ricavare informazioni sul pubblico che ha visto gli annunci e i contenuti. Tali dati possono essere utilizzati per sviluppare o migliorare l'esperienza, i sistemi e il software dell'utente.

Cliccando su “Accetto”, acconsenti all'uso di cookie, identificatori di dispositivo, web beacon o altre tecnologie simili. Puoi modificare le impostazioni nel browser del tuo dispositivo.

Per determinati scopi, è possibile fare affidamento su interessi legali, piuttosto che sul consenso. Puoi approfondire questo argomento consultando la nostra Informativa sulla privacy e sui cookie.